Theta_e
318 319 319 320 320 317 319 321 319 320 321 322 320 321 322 325 327 328 328 327 328 327 326 326 327 327 327 325 322 314 309 312 312 314 315 314 315 316 315 316 318 316 313
315 316 316 318 319 318 318 321 322 320 322 321 320 320 320 322 326 327 325 326 326 324 323 323 323 323 321 323 319 314 312 314 316 318 316 318 318 317 317 317 315 311 308
318 319 318 315 317 318 318 320 322 320 322 320 320 320 320 321 321 320 320 320 319 318 317 316 314 315 315 318 320 321 317 317 318 317 317 317 310 310 311 310 309 306 305
320 319 318 316 315 316 318 319 320 320 320 320 320 321 321 320 320 320 321 321 321 321 322 322 320 321 322 320 319 320 321 319 319 318 315 310 309 307 307 308 308 307 304
320 319 318 316 316 316 316 318 319 319 319 320 321 319 319 319 319 319 319 319 319 319 319 319 320 319 319 318 318 318 318 320 320 316 311 308 308 307 307 306 305 302 301
320 319 318 315 315 316 316 315 317 318 318 319 319 320 320 320 319 318 318 317 317 316 314 315 315 314 314 315 316 317 317 317 318 313 311 310 309 307 305 304 303 302 301
320 320 318 314 315 316 316 314 314 315 316 317 317 318 317 317 315 314 312 312 311 309 308 308 309 309 306 305 311 312 314 316 317 318 317 316 313 311 305 301 300 299 301
320 320 319 314 314 315 316 315 313 313 313 314 315 315 314 314 312 310 307 305 304 303 301 300 300 299 299 301 305 309 311 313 313 313 312 311 310 305 301 300 299 299 300
320 321 320 316 313 315 315 315 314 313 312 312 312 313 313 312 313 311 308 304 301 300 299 299 299 299 299 298 299 300 302 307 308 308 306 303 300 297 297 299 298 299 299
320 321 321 318 315 314 315 315 315 314 313 313 312 312 311 311 311 310 309 309 308 306 305 305 304 303 302 301 299 299 298 299 301 301 299 296 295 295 296 298 298 298 298
318 320 321 319 318 313 315 314 314 313 311 310 308 309 311 311 311 311 311 310 310 309 308 308 309 308 306 304 304 302 299 297 297 297 295 294 294 295 296 297 297 297 297
318 320 321 320 320 315 313 314 314 313 312 311 309 306 308 310 310 310 310 309 310 310 309 309 308 307 307 306 305 304 301 297 295 295 294 293 294 294 295 295 295 295 295
318 320 321 320 321 319 314 314 314 315 314 314 314 313 311 309 307 306 307 307 309 309 309 308 307 306 306 305 306 305 303 300 297 293 293 293 293 294 295 297 298 298 297
319 320 321 321 322 323 320 316 316 316 316 316 315 315 315 315 315 314 311 308 305 306 307 308 308 307 307 305 304 303 302 301 300 300 299 297 294 295 297 298 298 298 298
319 320 321 322 322 323 324 321 319 319 319 318 317 317 316 316 317 316 315 315 314 311 307 305 304 305 306 307 307 304 302 301 299 299 300 301 301 299 298 299 300 300 299
320 320 321 321 322 323 323 324 323 320 319 320 320 319 319 318 318 317 317 317 317 317 315 312 307 304 303 303 305 306 306 303 301 298 298 299 300 301 301 300 299 298 299
320 320 319 320 321 322 323 323 323 324 324 323 321 322 321 320 320 321 321 320 320 318 317 316 313 311 311 310 310 306 302 302 302 299 297 296 297 299 299 297 297 299 299
319 319 320 319 320 321 322 322 323 323 322 323 324 324 325 324 323 323 323 323 321 319 318 318 314 314 314 311 309 307 305 301 298 296 296 295 295 296 297 297 297 298 298
318 318 319 318 318 320 320 321 322 322 322 322 323 323 324 325 325 324 322 322 324 322 316 316 313 310 310 309 308 304 301 300 298 296 295 293 292 292 295 296 297 298 298
318 319 318 319 319 320 321 321 322 323 324 325 324 322 320 319 319 319 319 318 315 314 313 313 309 308 306 303 301 300 299 298 298 297 297 296 294 294 295 297 297 298 298
319 320 320 321 322 322 323 324 324 325 324 320 317 316 318 317 314 314 313 311 309 309 307 304 303 302 301 301 300 299 299 298 298 298 297 297 296 295 296 296 298 299 298
321 321 321 322 323 324 324 323 322 318 314 311 308 308 308 307 306 305 304 304 303 303 302 302 302 301 300 300 300 299 299 298 299 299 299 298 297 296 296 296 298 298 298
323 323 321 320 320 319 318 319 318 315 311 309 309 308 308 306 305 305 304 304 304 304 304 303 302 301 300 299 299 298 298 298 297 297 298 298 298 297 297 298 299 298 295
322 320 319 318 317 316 315 315 315 315 311 309 308 304 304 304 304 304 304 303 302 301 300 300 299 299 299 299 299 298 296 296 295 295 295 296 297 297 296 296 296 296 296
323 322 322 320 319 316 313 309 307 306 305 304 303 303 303 303 302 302 301 299 299 299 299 299 298 298 297 296 296 296 295 295 295 295 295 295 295 295 295 294 295 293 292
320 318 317 315 312 309 307 305 304 303 302 302 302 301 300 299 299 299 298 298 298 298 298 298 297 297 297 296 296 296 296 294 294 294 293 294 294 294 293 292 292 291 291
Wind_Speed
13 13 13 13 13 12 13 16 18 18 17 20 23 23 25 24 22 21 21 21 18 16 16 17 17 16 18 18 17 10 11 8 17 7 9 12 10 9 10 7 7 8 9
13 12 12 13 14 12 14 14 17 17 17 19 19 23 26 26 26 26 24 21 20 17 17 18 18 16 15 16 16 10 14 12 22 16 14 11 11 12 13 13 12 11 12
15 14 12 12 13 14 14 15 15 15 16 16 17 19 22 24 26 26 26 25 24 22 21 19 21 21 17 15 12 13 16 15 19 20 15 19 19 17 16 13 15 15 12
18 17 15 12 14 13 14 15 15 14 16 17 18 20 20 18 18 18 19 20 20 19 18 19 19 18 17 16 13 12 17 17 19 24 23 22 20 16 14 16 18 16 13
21 17 16 14 14 14 15 16 16 17 16 15 17 18 16 12 12 12 11 11 12 13 13 13 14 13 13 12 12 13 13 14 22 26 21 19 17 17 17 16 16 16 12
24 20 14 14 15 15 16 16 16 17 17 18 17 15 14 11 9 7 8 10 11 10 11 11 11 10 10 9 9 9 11 14 24 23 19 21 19 17 15 15 14 13 5
28 22 16 15 15 14 15 16 17 17 17 17 16 14 13 11 8 7 7 9 10 10 10 11 11 10 8 7 8 7 10 14 15 18 21 19 18 17 14 15 15 15 9
30 26 22 19 17 15 15 16 16 16 16 16 16 14 12 10 9 8 9 10 10 10 9 8 7 6 5 4 5 6 6 10 11 10 11 12 12 10 12 10 11 11 8
31 29 26 24 22 19 19 19 18 18 17 16 14 13 12 11 11 10 9 9 10 10 9 8 6 5 5 5 5 5 6 9 11 12 12 11 10 10 12 12 12 12 7
32 32 30 28 26 25 22 21 19 18 16 15 15 15 13 12 13 12 11 10 10 10 11 11 11 10 10 10 10 10 12 12 12 12 12 12 12 13 14 14 13 15 9
37 34 32 32 30 28 27 25 23 21 18 17 17 17 18 17 16 16 16 17 17 16 17 18 18 18 18 17 17 17 16 14 16 16 15 15 15 16 16 15 14 13 12
37 36 35 35 33 31 31 29 25 23 22 21 20 20 22 22 23 23 23 22 22 23 25 25 23 22 21 22 22 22 19 18 18 19 20 21 20 20 18 16 14 12 11
37 37 37 37 37 35 35 33 30 28 27 27 26 27 27 27 27 28 29 30 31 32 32 30 27 24 23 23 24 23 24 24 23 23 26 27 26 22 20 20 18 16 15
37 37 38 38 37 37 37 37 36 35 34 33 32 33 34 32 32 33 34 35 36 38 38 34 31 27 24 24 25 26 29 30 31 32 33 31 27 27 27 25 25 24 21
39 37 35 37 38 38 40 41 40 40 41 42 42 41 36 36 39 38 38 39 39 37 36 34 34 31 29 28 28 29 30 32 35 37 37 36 34 34 33 30 29 28 30
37 36 37 36 34 34 35 36 43 45 45 46 46 41 41 38 35 31 24 22 23 23 25 30 30 32 34 35 36 38 38 38 41 41 41 40 38 37 36 32 29 27 29
40 38 36 38 33 33 30 30 28 41 46 47 48 49 36 36 34 30 20 20 18 17 23 25 28 27 28 28 30 33 35 38 37 39 40 40 39 37 33 29 28 27 27
44 42 36 38 38 34 33 33 32 30 27 36 45 47 41 42 44 36 29 19 18 23 26 26 29 29 24 25 27 29 31 31 30 31 32 34 35 34 30 28 30 30 28
40 37 39 34 36 39 36 33 32 31 27 28 27 23 24 27 27 24 23 23 22 25 21 16 23 25 22 22 24 24 23 24 23 24 26 27 29 30 28 28 29 34 26
40 40 39 36 35 36 33 31 29 28 21 12 10 9 7 4 0 3 7 8 11 4 8 8 10 11 13 13 14 15 17 19 20 21 23 25 27 28 27 26 28 23 21
34 35 38 34 34 36 35 29 22 13 10 12 11 8 5 8 12 11 9 6 5 5 7 7 10 9 10 11 13 15 18 20 22 24 25 26 26 26 27 28 25 17 17
32 30 30 26 21 21 21 22 25 26 26 27 24 23 21 22 22 23 16 16 15 13 12 13 14 14 13 12 13 14 16 18 19 21 22 24 22 22 23 23 19 20 23
26 26 26 25 28 32 33 32 31 30 29 28 25 22 22 22 19 23 16 20 18 18 16 15 13 13 13 14 15 15 16 18 20 22 21 20 16 17 17 19 26 21 18
38 38 34 29 29 26 18 23 28 27 25 25 26 21 26 25 23 21 18 18 19 19 19 18 17 15 14 13 15 15 16 18 18 17 14 14 18 18 16 17 19 18 16
46 38 33 31 29 27 21 18 14 28 33 31 31 31 27 23 22 20 18 18 20 21 20 18 18 17 18 18 17 17 15 15 16 17 17 14 9 7 7 8 14 17 16
31 28 28 28 30 31 34 26 24 30 34 36 33 31 30 29 27 26 24 24 24 22 21 21 21 19 19 18 17 17 16 15 15 15 13 11 13 12 11 10 9 9 8
Wind_Direction
176 165 153 146 146 147 139 116 117 121 122 118 112 120 130 134 138 130 131 133 137 130 126 135 138 147 159 167 172 173 159 146 126 118 128 150 163 173 171 177 163 171 155
176 173 165 160 155 151 153 126 116 120 120 123 114 108 113 121 128 133 131 134 139 138 139 135 138 145 154 168 174 186 164 150 146 140 144 145 149 151 158 162 158 153 152
186 178 171 171 167 159 152 148 137 126 134 129 126 126 121 120 122 124 125 125 126 126 135 143 148 148 145 156 167 172 178 158 166 159 149 148 145 150 156 160 157 154 146
196 185 177 177 176 167 165 157 155 147 136 137 137 132 130 128 128 130 131 130 129 129 129 131 142 151 152 156 155 162 176 182 179 169 156 157 160 166 166 160 160 168 162
203 197 183 175 175 174 168 168 161 155 148 147 148 143 138 142 143 142 142 145 146 145 148 152 157 162 167 172 177 176 181 184 178 169 164 169 174 180 186 179 175 173 173
202 204 193 180 177 172 172 170 167 163 160 159 158 156 152 159 162 169 181 177 175 178 179 178 180 184 193 200 205 200 201 198 182 178 181 191 197 201 201 198 189 179 197
199 200 194 189 187 181 172 168 167 166 164 165 166 169 173 175 175 185 189 190 184 181 185 186 185 187 191 190 185 185 200 202 209 211 208 216 220 223 217 200 200 205 200
198 196 192 191 191 185 180 175 173 173 176 179 181 183 184 181 176 175 175 178 177 179 184 191 197 193 192 186 185 193 199 211 224 237 249 259 257 255 229 224 214 200 188
198 198 195 193 192 191 189 186 184 185 186 190 193 196 196 192 190 187 188 188 194 195 197 205 215 225 244 253 255 253 240 236 246 250 257 252 239 225 217 215 199 186 194
199 202 199 196 196 196 196 195 196 201 204 207 210 213 213 209 208 206 209 214 221 226 230 229 232 232 242 250 252 254 253 251 249 248 240 230 220 214 213 213 214 206 199
205 204 202 199 199 201 198 199 201 202 205 210 216 218 218 220 224 225 226 231 238 241 245 245 243 243 241 244 249 249 251 253 250 242 232 225 219 218 219 217 217 220 209
202 202 205 203 202 201 202 203 205 204 206 211 216 220 224 225 228 232 235 240 243 245 250 255 256 254 253 248 249 254 252 252 250 241 235 231 230 228 227 225 222 221 221
197 200 204 207 205 206 204 204 205 207 211 214 218 225 230 231 233 234 237 241 244 247 253 258 263 264 263 259 255 256 253 249 248 242 241 242 241 245 240 231 225 225 224
194 198 201 204 206 210 211 211 209 209 214 220 223 229 236 238 239 240 240 241 242 248 253 257 263 266 265 264 259 254 249 249 249 251 253 256 251 244 241 236 236 232 226
195 197 199 203 206 207 214 215 217 222 222 222 228 233 233 241 247 248 248 246 247 249 256 259 257 258 260 261 262 260 255 252 249 251 253 255 253 251 249 247 245 245 234
194 197 199 201 205 205 209 216 228 231 233 236 242 242 244 250 257 268 269 271 274 273 264 260 262 262 262 261 264 268 265 259 256 254 254 254 253 252 251 252 252 249 223
195 197 200 200 202 204 207 212 224 236 239 245 249 248 246 254 261 266 270 266 269 254 249 263 264 260 264 265 270 272 270 277 275 266 260 255 256 256 255 255 248 221 222
195 199 194 197 203 206 207 213 220 230 236 243 246 250 251 250 254 261 264 253 245 249 247 252 260 267 267 273 280 286 289 286 282 278 269 262 258 257 250 237 223 215 222
198 202 199 197 198 204 208 213 219 227 234 241 243 246 250 255 256 260 257 251 246 250 246 263 269 271 286 297 295 292 291 291 293 287 280 272 267 261 249 237 222 220 221
197 203 200 198 198 203 205 209 215 223 232 223 226 235 253 258 200 219 227 241 272 264 293 304 294 318 324 318 314 308 304 304 301 292 289 285 279 268 247 228 224 221 230
196 201 200 200 203 205 207 210 214 200 149 118 107 93 112 109 84 70 56 42 36 51 39 18 19 13 6 355 345 331 319 312 309 304 299 294 288 270 256 240 233 233 262
189 189 185 178 169 164 160 149 130 119 114 108 99 90 82 79 85 77 61 65 53 50 46 44 38 29 22 18 10 2 351 344 341 332 322 315 298 277 260 246 235 273 283
144 133 128 125 129 127 125 124 123 120 116 112 109 108 103 91 75 81 72 64 60 58 57 54 47 39 34 20 13 3 354 347 339 330 322 310 305 287 264 262 283 284 254
124 116 111 106 112 111 111 126 131 129 127 118 109 119 111 110 95 89 78 66 63 66 63 57 51 45 34 21 7 2 1 353 355 353 345 322 291 287 291 294 285 275 262
122 125 127 130 129 123 126 129 133 122 123 126 120 107 100 96 91 86 84 82 74 66 62 57 52 47 41 35 25 13 4 2 0 1 356 358 1 345 315 287 299 304 280
139 137 136 131 127 130 133 131 118 112 113 112 109 108 103 99 97 95 89 83 77 72 67 58 48 43 35 25 18 13 8 4 3 2 351 334 323 323 321 302 298 305 304